Location: Quedlinburg
(51.7921°N, 11.1414°E)
Time: 02:17:41
(UTC+02:00)

BEESAT - Pass Details

Date: 19 March 2026
Orbit: 683 x 693 km, 98.4° (Epoch: 13 April)

Event Time Altitude Azimuth Distance (km) Brightness Sun altitude
Rises 00:19:18 0° 12° (NNE) 3,065 ? -38.8°
Reaches altitude 10° 00:21:34 10° 10° (N) 2,144 ? -38.9°
Enters shadow 00:22:33 16° 8° (N) 1,756 ? -38.9°
